{"data":{"norad_id":44927,"intl_designator":"2020-001P","name":"STARLINK-1114","alt_names":[],"object_type":"PAYLOAD","status":"ACTIVE","operator":null,"country":"US","launch_date":"2020-01-07","launch_site_code":"AFETR","launch_vehicle":null,"mission":null,"orbit_class":"UNKNOWN","rcs_meters":null,"size_class":null,"mass_kg":null,"dimensions":null,"purposes":["comms"],"wikipedia_slug":null,"has_3d_model":false,"image_url":null,"decayed_at":null,"tle_current":{"epoch":"2026-09-20T02:34:58.715328Z","epoch_age_seconds":48200,"freshness":"FRESH","line1":"1 44927U 20001P   26263.10762402  .00097328  00000+0  43015-3 0  9994","line2":"2 44927  53.0343  91.7861 0003379 157.7411 202.3759 15.83706738370585","mean_motion":15.83706738,"eccentricity":0.0003379,"inclination_deg":53.0343,"raan_deg":91.7861,"arg_perigee_deg":157.7411,"mean_anomaly_deg":202.3759,"bstar":0.00043015,"rev_number":37058,"period_min":90.925924948613,"perigee_km":317.70543583512,"apogee_km":322.23201568459,"semimajor_km":6698.1057257599,"source":"CELESTRAK","updated_at":"2026-09-20T09:00:38.220766Z"}}}